When you browse on this site, cookies collect data to enhance your experience and personalize the content and advertising you see.
Visit our Privacy Policy to learn more. By continuing to use the site, you agree to this use of cookies and data.
  • în România
  • Lista ţărilor
  • Pe 7 zile
  • Temperatura apei
  • Meteo pe hartă
  • Widget-uri
  • user-avatar
    Intrare

    Meteo pe oră la Saint-Etienne

    Astăzi, 15 Septembrie, Duminică

    Timp Temperatura Precipitaţii Vânt Presiune Umiditate
    00:00 +19°C° 0 mm 1 m/s 721 mmHg 86%
    01:00 +19°C° 0 mm 1 m/s 721 mmHg 86%
    02:00 +18°C° 0 mm 1 m/s 720 mmHg 86%
    03:00 +18°C° 0 mm 1 m/s 720 mmHg 86%
    04:00 +18°C° 0 mm 1 m/s 720 mmHg 85%
    05:00 +16°C° 0 mm 0 m/s 720 mmHg 84%
    06:00 +19°C° 0 mm 1 m/s 720 mmHg 81%
    07:00 +21°C° 0 mm 1 m/s 720 mmHg 72%
    08:00 +24°C° 0 mm 1 m/s 720 mmHg 62%
    09:00 +26°C° 0 mm 1 m/s 721 mmHg 53%
    10:00 +28°C° 0 mm 1 m/s 720 mmHg 47%
    11:00 +29°C° 0 mm 1 m/s 720 mmHg 42%
    12:00 +31°C° 0 mm 1 m/s 720 mmHg 36%
    13:00 +31°C° 0 mm 1 m/s 720 mmHg 36%
    14:00 +31°C° 0 mm 1 m/s 719 mmHg 35%
    15:00 +31°C° 0 mm 2 m/s 719 mmHg 35%
    16:00 +28°C° 0 mm 1 m/s 719 mmHg 43%
    17:00 +26°C° 0 mm 1 m/s 719 mmHg 50%
    18:00 +23°C° 0 mm 1 m/s 718 mmHg 58%
    19:00 +22°C° 0 mm 1 m/s 718 mmHg 58%
    20:00 +21°C° 0 mm 1 m/s 718 mmHg 59%
    21:00 +20°C° 0 mm 1 m/s 718 mmHg 60%
    22:00 +20°C° 0 mm 1 m/s 718 mmHg 60%
    23:00 +19°C° 0 mm 1 m/s 718 mmHg 60%

    Mâine, 16 Septembrie, Luni

    Timp Temperatura Precipitaţii Vânt Presiune Umiditate
    00:00 +19°C° 0 mm 1 m/s 718 mmHg 60%
    01:00 +18°C° 0 mm 1 m/s 718 mmHg 60%
    02:00 +18°C° 0 mm 1 m/s 717 mmHg 60%
    03:00 +18°C° 0 mm 1 m/s 717 mmHg 61%
    04:00 +18°C° 0 mm 1 m/s 717 mmHg 61%
    05:00 +18°C° 0 mm 1 m/s 717 mmHg 61%
    06:00 +18°C° 0 mm 1 m/s 717 mmHg 61%
    07:00 +21°C° 0 mm 1 m/s 717 mmHg 55%
    08:00 +24°C° 0 mm 1 m/s 717 mmHg 49%
    09:00 +25°C° 0 mm 0 m/s 718 mmHg 43%
    10:00 +28°C° 0 mm 1 m/s 718 mmHg 40%
    11:00 +29°C° 0 mm 1 m/s 717 mmHg 38%
    12:00 +30°C° 0 mm 1 m/s 717 mmHg 35%
    13:00 +30°C° 0 mm 1 m/s 717 mmHg 36%
    14:00 +30°C° 0 mm 1 m/s 716 mmHg 36%
    15:00 +30°C° 0 mm 1 m/s 716 mmHg 37%
    16:00 +28°C° 0 mm 1 m/s 716 mmHg 45%
    17:00 +25°C° 0 mm 1 m/s 715 mmHg 53%
    18:00 +23°C° 0 mm 1 m/s 715 mmHg 61%
    19:00 +22°C° 0 mm 1 m/s 715 mmHg 62%
    20:00 +21°C° 0 mm 1 m/s 716 mmHg 62%
    21:00 +19°C° 0 mm 0 m/s 716 mmHg 63%
    22:00 +18°C° 0 mm 0 m/s 716 mmHg 65%
    23:00 +18°C° 0 mm 0 m/s 716 mmHg 68%

    Poimâine, 17 Septembrie, Marţi

    Timp Temperatura Precipitaţii Vânt Presiune Umiditate
    00:00 +17°C° 0 mm 0 m/s 716 mmHg 70%
    01:00 +17°C° 0 mm 0 m/s 715 mmHg 73%
    02:00 +16°C° 0 mm 0 m/s 715 mmHg 75%
    03:00 +16°C° 0 mm 0 m/s 715 mmHg 78%
    04:00 +15°C° 0 mm 0 m/s 715 mmHg 79%
    05:00 +15°C° 0 mm 0 m/s 715 mmHg 80%
    06:00 +16°C° 0 mm 1 m/s 715 mmHg 81%
    07:00 +19°C° 0 mm 1 m/s 715 mmHg 72%
    08:00 +22°C° 0 mm 1 m/s 715 mmHg 64%
    09:00 +24°C° 0 mm 2 m/s 716 mmHg 55%
    10:00 +25°C° 0 mm 2 m/s 715 mmHg 51%
    11:00 +26°C° 0 mm 2 m/s 715 mmHg 48%
    12:00 +27°C° 0 mm 3 m/s 715 mmHg 44%
    13:00 +27°C° 0 mm 3 m/s 714 mmHg 44%
    14:00 +27°C° 0 mm 3 m/s 714 mmHg 44%
    15:00 +27°C° 0 mm 3 m/s 714 mmHg 44%
    16:00 +25°C° 0 mm 2 m/s 714 mmHg 51%
    17:00 +21°C° 0 mm 2 m/s 713 mmHg 58%
    18:00 +20°C° 0 mm 1 m/s 713 mmHg 65%
    19:00 +19°C° 0 mm 1 m/s 713 mmHg 67%
    20:00 +18°C° 0 mm 1 m/s 714 mmHg 69%
    21:00 +16°C° 0 mm 1 m/s 714 mmHg 72%
    22:00 +15°C° 0 mm 1 m/s 714 mmHg 77%
    23:00 +15°C° 0 mm 1 m/s 713 mmHg 82%

    18 Septembrie, Miercuri

    Timp Temperatura Precipitaţii Vânt Presiune Umiditate
    00:00 +14°C° 0 mm 1 m/s 713 mmHg 87%
    01:00 +14°C° 0 mm 1 m/s 713 mmHg 89%
    02:00 +13°C° 0 mm 1 m/s 713 mmHg 91%
    03:00 +13°C° 0 mm 1 m/s 713 mmHg 93%
    04:00 +13°C° 0 mm 1 m/s 713 mmHg 93%
    05:00 +12°C° 0 mm 1 m/s 713 mmHg 94%
    06:00 +12°C° 0 mm 1 m/s 713 mmHg 94%
    07:00 +14°C° 0 mm 1 m/s 714 mmHg 84%
    08:00 +16°C° 0 mm 2 m/s 714 mmHg 74%
    09:00 +18°C° 0 mm 2 m/s 714 mmHg 63%
    10:00 +20°C° 0 mm 2 m/s 714 mmHg 59%
    11:00 +21°C° 0 mm 3 m/s 714 mmHg 55%
    12:00 +22°C° 0 mm 3 m/s 714 mmHg 51%
    13:00 +22°C° 0 mm 3 m/s 714 mmHg 51%
    14:00 +22°C° 0 mm 3 m/s 714 mmHg 51%
    15:00 +22°C° 0 mm 3 m/s 714 mmHg 50%
    16:00 +20°C° 0 mm 3 m/s 714 mmHg 55%
    17:00 +18°C° 0 mm 2 m/s 713 mmHg 60%
    18:00 +16°C° 0 mm 2 m/s 713 mmHg 65%
    19:00 +15°C° 0 mm 2 m/s 714 mmHg 65%
    20:00 +14°C° 0 mm 2 m/s 714 mmHg 65%
    21:00 +13°C° 0 mm 2 m/s 715 mmHg 65%
    22:00 +12°C° 0 mm 2 m/s 714 mmHg 66%
    23:00 +10°C° 0 mm 2 m/s 714 mmHg 67%

    19 Septembrie, Joi

    Timp Temperatura Precipitaţii Vânt Presiune Umiditate
    00:00 +10°C° 0 mm 1 m/s 714 mmHg 68%
    01:00 +9°C° 0 mm 1 m/s 714 mmHg 71%
    02:00 +9°C° 0 mm 1 m/s 714 mmHg 74%
    03:00 +8°C° 0 mm 1 m/s 714 mmHg 76%
    04:00 +8°C° 0 mm 1 m/s 714 mmHg 78%
    05:00 +8°C° 0 mm 1 m/s 714 mmHg 80%
    06:00 +7°C° 0 mm 1 m/s 714 mmHg 82%
    07:00 +9°C° 0 mm 2 m/s 715 mmHg 73%
    08:00 +12°C° 0 mm 2 m/s 715 mmHg 65%
    09:00 +14°C° 0 mm 2 m/s 715 mmHg 56%
    10:00 +16°C° 0 mm 3 m/s 715 mmHg 52%
    11:00 +17°C° 0 mm 3 m/s 715 mmHg 48%
    12:00 +19°C° 0 mm 4 m/s 715 mmHg 44%
    13:00 +19°C° 0 mm 4 m/s 715 mmHg 44%
    14:00 +19°C° 0 mm 4 m/s 715 mmHg 44%
    15:00 +19°C° 0 mm 4 m/s 715 mmHg 44%
    16:00 +17°C° 0 mm 3 m/s 715 mmHg 50%
    17:00 +14°C° 0 mm 3 m/s 715 mmHg 55%
    18:00 +13°C° 0 mm 2 m/s 715 mmHg 61%
    19:00 +12°C° 0 mm 2 m/s 715 mmHg 64%
    20:00 +10°C° 0 mm 2 m/s 716 mmHg 66%
    21:00 +8°C° 0 mm 2 m/s 716 mmHg 68%
    22:00 +9°C° 0 mm 1 m/s 716 mmHg 72%
    23:00 +8°C° 0 mm 1 m/s 716 mmHg 76%

    20 Septembrie, Vineri

    Timp Temperatura Precipitaţii Vânt Presiune Umiditate
    00:00 +7°C° 0 mm 1 m/s 716 mmHg 79%
    01:00 +6°C° 0 mm 1 m/s 716 mmHg 81%
    02:00 +6°C° 0 mm 1 m/s 716 mmHg 84%
    03:00 +5°C° 0 mm 1 m/s 716 mmHg 86%
    04:00 +5°C° 0 mm 1 m/s 716 mmHg 85%
    05:00 +5°C° 0 mm 1 m/s 716 mmHg 84%
    06:00 +5°C° 0 mm 1 m/s 715 mmHg 84%
    07:00 +8°C° 0 mm 1 m/s 716 mmHg 72%
    08:00 +12°C° 0 mm 1 m/s 716 mmHg 61%
    09:00 +15°C° 0 mm 1 m/s 717 mmHg 49%
    10:00 +18°C° 0 mm 1 m/s 717 mmHg 47%
    11:00 +19°C° 0 mm 1 m/s 717 mmHg 44%
    12:00 +21°C° 0 mm 1 m/s 717 mmHg 42%
    13:00 +21°C° 0 mm 2 m/s 717 mmHg 44%
    14:00 +21°C° 0 mm 2 m/s 716 mmHg 46%
    15:00 +21°C° 0 mm 2 m/s 716 mmHg 48%
    16:00 +19°C° 0 mm 2 m/s 716 mmHg 59%
    17:00 +16°C° 0 mm 1 m/s 715 mmHg 71%
    18:00 +14°C° 0 mm 1 m/s 715 mmHg 82%
    19:00 +13°C° 0 mm 1 m/s 715 mmHg 85%
    20:00 +13°C° 0 mm 1 m/s 716 mmHg 87%
    21:00 +13°C° 0 mm 1 m/s 716 mmHg 90%
    22:00 +13°C° 0 mm 1 m/s 716 mmHg 91%
    23:00 +12°C° 0 mm 1 m/s 716 mmHg 92%
    Arată mai mult